OK1PHU-5 Weather Reports


time (UTC)temp
F
wind
direction
speed
knots
gust
knots
rain 1hr
in
rain 24hr
in
rain mn
in
humidity
%
barometer
mb
20260507032701 0 0 0.0 0.0 0.00 0.00 0.00 99 1006.7
20260507031701 0 0 0.0 0.0 0.00 0.00 0.00 99 1006.7
20260507030701 0 0 0.0 0.0 0.00 0.00 0.00 99 1006.7
20260507025701 0 0 0.0 0.0 0.00 0.00 0.00 99 1006.6
20260507024701 0 0 0.0 0.0 0.00 0.00 0.00 99 1006.6
20260507023657 0 0 0.0 0.0 0.00 0.00 0.00 99 1006.5
20260507022657 0 0 0.0 0.0 0.00 0.00 0.00 99 1006.4
20260507021657 0 0 0.0 0.0 0.00 0.00 0.00 99 1006.4
20260507020657 0 0 0.0 0.0 0.00 0.00 0.00 99 1006.4
20260507015657 0 0 0.0 0.0 0.00 0.00 0.00 99 1006.3
20260507014657 0 0 0.0 0.0 0.00 0.00 0.00 99 1006.3
20260507012654 0 0 0.0 0.0 0.00 0.00 0.00 99 1006.0
20260507011654 0 0 0.0 0.0 0.00 0.00 0.00 99 1006.0
20260507010654 0 0 0.0 0.0 0.00 0.00 0.00 99 1005.8
20260507005654 0 0 0.0 0.0 0.00 0.00 0.00 99 1005.7
20260507004654 0 0 0.0 0.0 0.00 0.00 0.00 99 1005.6
20260507002651 0 0 0.0 0.0 0.00 0.00 0.00 99 1005.5
20260507001651 0 0 0.0 0.0 0.00 0.00 0.00 99 1005.2
20260507000651 0 0 0.0 0.0 0.00 0.00 0.00 99 1005.4
20260506235651 0 0 0.0 0.0 0.00 0.00 0.00 99 1005.1
20260506234651 0 0 0.0 0.0 0.00 0.00 0.00 99 1005.1
20260506232648 0 0 0.0 0.0 0.00 0.00 0.00 99 1004.6
20260506231648 0 0 0.0 0.0 0.00 0.00 0.00 99 1004.5
20260506230648 0 0 0.0 0.0 0.00 0.00 0.00 99 1004.6
20260506225648 0 0 0.0 0.0 0.00 0.00 0.00 99 1004.8
20260506224648 0 0 0.0 0.0 0.00 0.00 0.00 99 1004.6
20260506223644 0 0 0.0 0.0 0.00 0.00 0.00 99 1004.4
20260506222644 0 0 0.0 0.0 0.00 0.00 0.00 99 1004.7
20260506221644 0 0 0.0 0.0 0.00 0.00 0.00 99 1004.6
20260506220644 0 0 0.0 0.0 0.00 0.00 0.00 99 1004.5
20260506215644 0 0 0.0 0.0 0.00 0.00 0.00 99 1004.3
20260506214644 0 0 0.0 0.0 0.00 0.00 0.00 99 1004.2
20260506212641 0 0 0.0 0.0 0.00 0.00 0.00 99 1002.9
20260506211641 0 0 0.0 0.0 0.00 0.00 0.00 99 1002.8
20260506210641 0 0 0.0 0.0 0.00 0.00 0.00 99 1002.8
20260506205641 0 0 0.0 0.0 0.00 0.00 0.00 99 1002.7
20260506204641 0 0 0.0 0.0 0.00 0.00 0.00 99 1002.9
20260506202638 0 0 0.0 0.0 0.00 0.00 0.00 99 1003.1
20260506201638 0 0 0.0 0.0 0.00 0.00 0.00 99 1003.0
20260506200638 0 0 0.0 0.0 0.00 0.00 0.00 99 1003.2
20260506195638 0 0 0.0 0.0 0.00 0.00 0.00 99 1003.3
20260506194638 0 0 0.0 0.0 0.00 0.00 0.00 99 1003.1
20260506192635 0 0 0.0 0.0 0.00 0.00 0.00 99 1003.3
20260506191635 0 0 0.0 0.0 0.00 0.00 0.00 99 1003.3
20260506190634 0 0 0.0 0.0 0.00 0.00 0.00 99 1003.3
20260506185634 0 0 0.0 0.0 0.00 0.00 0.00 99 1003.2
20260506184634 0 0 0.0 0.0 0.00 0.00 0.00 99 1003.1
20260506182631 0 0 0.0 0.0 0.00 0.00 0.00 99 1003.0
20260506181631 0 0 0.0 0.0 0.00 0.00 0.00 99 1002.6
20260506180631 0 0 0.0 0.0 0.00 0.00 0.00 99 1002.5
20260506175631 0 0 0.0 0.0 0.00 0.00 0.00 99 1002.5
20260506174631 0 0 0.0 0.0 0.00 0.00 0.00 99 1002.1
20260506172628 0 0 0.0 0.0 0.00 0.00 0.00 99 1001.6
20260506171628 0 0 0.0 0.0 0.00 0.00 0.00 99 1001.7
20260506170628 0 0 0.0 0.0 0.00 0.00 0.00 99 1001.7
20260506165628 0 0 0.0 0.0 0.00 0.00 0.00 99 1001.7
20260506164628 0 0 0.0 0.0 0.00 0.00 0.00 98 1001.6
20260506162625 0 0 0.0 0.0 0.00 0.00 0.00 95 1001.7
20260506161625 0 0 0.0 0.0 0.00 0.00 0.00 93 1001.6
20260506160625 0 0 0.0 0.0 0.00 0.00 0.00 90 1001.7
20260506155625 0 0 0.0 0.0 0.00 0.00 0.00 85 1001.5
20260506154625 0 0 0.0 0.0 0.00 0.00 0.00 76 1001.4
20260506152621 0 0 0.0 0.0 0.00 0.00 0.00 76 1001.6
20260506151621 0 0 0.0 0.0 0.00 0.00 0.00 77 1001.6
20260506150621 0 0 0.0 0.0 0.00 0.00 0.00 76 1001.6
20260506145621 0 0 0.0 0.0 0.00 0.00 0.00 75 1001.5
20260506144621 0 0 0.0 0.0 0.00 0.00 0.00 76 1001.7
20260506143618 0 0 0.0 0.0 0.00 0.00 0.00 75 1001.9
20260506142618 0 0 0.0 0.0 0.00 0.00 0.00 74 1002.0
20260506141618 0 0 0.0 0.0 0.00 0.00 0.00 73 1002.0
20260506140618 0 0 0.0 0.0 0.00 0.00 0.00 72 1001.9
20260506135618 0 0 0.0 0.0 0.00 0.00 0.00 72 1002.0
20260506134618 0 0 0.0 0.0 0.00 0.00 0.00 71 1002.0
20260506132615 0 0 0.0 0.0 0.00 0.00 0.00 72 1002.7
20260506131615 0 0 0.0 0.0 0.00 0.00 0.00 71 1002.7
20260506130615 0 0 0.0 0.0 0.00 0.00 0.00 68 1002.4
20260506125615 0 0 0.0 0.0 0.00 0.00 0.00 68 1002.7
20260506124615 0 0 0.0 0.0 0.00 0.00 0.00 68 1002.7
20260506123612 0 0 0.0 0.0 0.00 0.00 0.00 67 1002.8
20260506122612 0 0 0.0 0.0 0.00 0.00 0.00 67 1002.7
20260506121612 0 0 0.0 0.0 0.00 0.00 0.00 67 1002.7
20260506120612 0 0 0.0 0.0 0.00 0.00 0.00 70 1002.8
20260506115611 0 0 0.0 0.0 0.00 0.00 0.00 66 1002.7
20260506114611 0 0 0.0 0.0 0.00 0.00 0.00 66 1002.9
20260506112608 0 0 0.0 0.0 0.00 0.00 0.00 65 1002.9
20260506111608 0 0 0.0 0.0 0.00 0.00 0.00 64 1002.8
20260506110608 0 0 0.0 0.0 0.00 0.00 0.00 63 1002.7
20260506105608 0 0 0.0 0.0 0.00 0.00 0.00 64 1002.6
20260506104608 0 0 0.0 0.0 0.00 0.00 0.00 65 1002.8
20260506102605 0 0 0.0 0.0 0.00 0.00 0.00 68 1003.2
20260506101605 0 0 0.0 0.0 0.00 0.00 0.00 66 1003.2
20260506100605 0 0 0.0 0.0 0.00 0.00 0.00 68 1003.3
20260506095605 0 0 0.0 0.0 0.00 0.00 0.00 70 1003.2
20260506094605 0 0 0.0 0.0 0.00 0.00 0.00 68 1003.5
20260506092602 0 0 0.0 0.0 0.00 0.00 0.00 70 1003.4
20260506091602 0 0 0.0 0.0 0.00 0.00 0.00 68 1003.6
20260506090602 0 0 0.0 0.0 0.00 0.00 0.00 68 1003.2
20260506085602 0 0 0.0 0.0 0.00 0.00 0.00 72 1003.8
20260506084602 0 0 0.0 0.0 0.00 0.00 0.00 76 1003.6
20260506083559 0 0 0.0 0.0 0.00 0.00 0.00 71 1003.7
20260506082558 0 0 0.0 0.0 0.00 0.00 0.00 70 1003.4
20260506081558 0 0 0.0 0.0 0.00 0.00 0.00 73 1003.6
20260506080558 0 0 0.0 0.0 0.00 0.00 0.00 73 1003.4
20260506072555 0 0 0.0 0.0 0.00 0.00 0.00 68 1003.4
20260506071555 0 0 0.0 0.0 0.00 0.00 0.00 67 1003.1
20260506070555 0 0 0.0 0.0 0.00 0.00 0.00 69 1003.4
20260506061552 0 0 0.0 0.0 0.00 0.00 0.00 63 1002.4
20260506060552 0 0 0.0 0.0 0.00 0.00 0.00 65 1002.6
20260506050549 0 0 0.0 0.0 0.00 0.00 0.00 81 1003.1
20260506044549 0 0 0.0 0.0 0.00 0.00 0.00 94 1003.7
20260506042545 0 0 0.0 0.0 0.00 0.00 0.00 99 1004.9
20260506041545 0 0 0.0 0.0 0.00 0.00 0.00 99 1004.9
20260506040545 0 0 0.0 0.0 0.00 0.00 0.00 99 1004.8
20260506035545 0 0 0.0 0.0 0.00 0.00 0.00 99 1004.6